User: anonymous   Login
Location: Curupao
(10.4996°N, 66.6442°W)
Time: 13:27:00
(UTC+00:00)
Language:

OAO 1 - Orbit

View from above orbital plane
View from above orbital plane
View from above satellite
View from above satellite

Ground track
Ground track

The orbit data is extracted from the following two-line orbital elements,

1  2142U 66031A   24196.19339956  .00000219  00000-0  83700-4 0  9996
2  2142  35.0434 212.4061 0007056 187.3477 172.7108 14.34278996 50500
Epoch (UTC): 14 July 2024 04:38:29
Eccentricity: 0.0007056
inclination: 35.0434°
perigee height: 772 km
apogee height: 782 km
right ascension of ascending node: 212.4061°
argument of perigee: 187.3477°
revolutions per day: 14.34278996
mean anomaly at epoch: 172.7108°
orbit number at epoch: 5050

The dashed part of the orbit path shows where the satellite is in the earth's shadow,  

DLR